This is the latest recevied weather packets stored in our database for station/object N8ESC. If no packets are shown the sender has not sent any weather packets the latest 10 day(s).
| Time | Temp. | Humidity | Pressure | Rain* | Wind** | Luminosity | Snow |
|---|---|---|---|---|---|---|---|
| 1778022531 | 8.89° C | 41% | 1006.5 hPa | 0 mm | - | 81 W/m² | - |
| 1778022228 | 8.89° C | 41% | 1006.4 hPa | 0 mm | - | 97 W/m² | - |
| 1778021925 | 9.44° C | 41% | 1006.4 hPa | 0 mm | - | 89 W/m² | - |
| 1778021622 | 9.44° C | 41% | 1006.4 hPa | 0 mm | - | 86 W/m² | - |
| 1778021317 | 9.44° C | 41% | 1006.4 hPa | 0 mm | - | 96 W/m² | - |
| 1778021016 | 10° C | 40% | 1006.4 hPa | 0 mm | - | 90 W/m² | - |
| 1778020712 | 10° C | 40% | 1006.3 hPa | 0 mm | - | 99 W/m² | - |
| 1778020409 | 10° C | 39% | 1006.2 hPa | 0 mm | - | 124 W/m² | - |
| 1778020105 | 10° C | 39% | 1006.1 hPa | 0 mm | - | 153 W/m² | - |
| 1778019801 | 10° C | 40% | 1006.2 hPa | 0 mm | - | 148 W/m² | - |
| 1778019498 | 10° C | 41% | 1006 hPa | 0 mm | - | 144 W/m² | - |
| 1778019195 | 10° C | 41% | 1006.1 hPa | 0 mm | - | 151 W/m² | - |
| 1778018892 | 10° C | 40% | 1006 hPa | 0 mm | - | 155 W/m² | - |
| 1778018589 | 10° C | 40% | 1005.7 hPa | 0 mm | - | 147 W/m² | - |
| 1778018287 | 10.56° C | 40% | 1005.8 hPa | 0 mm | - | 189 W/m² | - |
| 1778017985 | 10.56° C | 40% | 1005.7 hPa | 0 mm | - | 495 W/m² | - |
| 1778017682 | 10.56° C | 36% | 1005.5 hPa | 0 mm | - | 180 W/m² | - |
| 1778017379 | 10.56° C | 37% | 1005.4 hPa | 0 mm | - | 178 W/m² | - |
| 1778017076 | 10.56° C | 37% | 1005.6 hPa | 0 mm | - | 183 W/m² | - |
| 1778016774 | 10.56° C | 38% | 1005.5 hPa | 0 mm | - | 219 W/m² | - |
| 1778016469 | 10.56° C | 38% | 1005.6 hPa | 0 mm | - | 213 W/m² | - |
| 1778016167 | 10.56° C | 37% | 1005.5 hPa | 0 mm | - | 207 W/m² | - |
| 1778015864 | 10.56° C | 37% | 1005.4 hPa | 0 mm | - | 245 W/m² | - |
| 1778015562 | 10.56° C | 37% | 1005.3 hPa | 0 mm | - | 255 W/m² | - |
| 1778015258 | 10.56° C | 37% | 1005.2 hPa | 0 mm | - | 198 W/m² | - |
* Rain latest hour (hover to see other rain measurements)
** Current wind speed in m/s (hover to see current wind gust speed)